| time (UTC) | temp C | wind direction | speed KPH | gust KPH | rain 1hr cm | rain 24hr cm | rain mn cm | humidity % | barometer mb |
| 20260505060523 | 7 | 352 | 0.0 | 0.0 | 0.00 | 0.00 | 0.00 | 98 | 1006.1 |
| 20260505060020 | 7 | 352 | 0.0 | 0.0 | 0.00 | 0.00 | 0.00 | 98 | 1006.0 |
| 20260505055515 | 7 | 352 | 0.0 | 0.0 | 0.00 | 0.00 | 0.00 | 98 | 1005.9 |
| 20260505055012 | 7 | 352 | 0.0 | 0.0 | 0.00 | 0.00 | 0.00 | 98 | 1006.3 |
| 20260505054509 | 7 | 352 | 0.0 | 0.0 | 0.00 | 0.00 | 0.00 | 98 | 1006.0 |
| 20260505054008 | 7 | 352 | 0.0 | 0.0 | 0.00 | 0.00 | 0.00 | 98 | 1006.1 |
| 20260505053504 | 7 | 352 | 0.0 | 0.0 | 0.00 | 0.00 | 0.00 | 98 | 1006.0 |
| 20260505053000 | 7 | 352 | 0.0 | 0.0 | 0.00 | 0.00 | 0.00 | 98 | 1005.9 |
| 20260505052458 | 7 | 352 | 0.0 | 0.0 | 0.00 | 0.00 | 0.00 | 98 | 1006.1 |
| 20260505051955 | 7 | 352 | 0.0 | 0.0 | 0.00 | 0.00 | 0.00 | 98 | 1006.0 |
| 20260505051452 | 7 | 352 | 0.0 | 0.0 | 0.00 | 0.00 | 0.00 | 98 | 1005.8 |
| 20260505050950 | 7 | 352 | 0.0 | 0.0 | 0.00 | 0.00 | 0.00 | 97 | 1006.1 |
| 20260505050448 | 7 | 352 | 0.0 | 0.0 | 0.00 | 0.00 | 0.00 | 97 | 1005.9 |
| 20260505041416 | 8 | 352 | 0.0 | 0.0 | 0.00 | 0.00 | 0.00 | 96 | 1006.1 |
| 20260505040913 | 8 | 352 | 0.0 | 0.0 | 0.00 | 0.00 | 0.00 | 96 | 1006.3 |
| 20260505040411 | 8 | 352 | 0.0 | 0.0 | 0.00 | 0.00 | 0.00 | 96 | 1006.4 |
| 20260505035907 | 8 | 352 | 0.0 | 0.0 | 0.00 | 0.00 | 0.00 | 96 | 1006.4 |
| 20260505035403 | 8 | 352 | 0.0 | 0.0 | 0.00 | 0.00 | 0.00 | 96 | 1006.2 |
| 20260505034900 | 8 | 352 | 0.0 | 0.0 | 0.00 | 0.00 | 0.00 | 95 | 1006.3 |
| 20260505034357 | 8 | 352 | 0.0 | 0.0 | 0.00 | 0.00 | 0.00 | 95 | 1006.2 |
| 20260505033854 | 8 | 352 | 0.0 | 0.0 | 0.00 | 0.00 | 0.00 | 95 | 1006.1 |
| 20260505033350 | 8 | 352 | 0.0 | 0.0 | 0.00 | 0.00 | 0.00 | 95 | 1006.4 |
| 20260505032849 | 8 | 352 | 0.0 | 0.0 | 0.00 | 0.00 | 0.00 | 94 | 1006.4 |
| 20260505032345 | 8 | 352 | 0.0 | 0.0 | 0.00 | 0.00 | 0.00 | 94 | 1006.5 |
| 20260505031842 | 8 | 352 | 0.0 | 0.0 | 0.00 | 0.00 | 0.00 | 94 | 1006.2 |
| 20260505031339 | 9 | 352 | 0.0 | 0.0 | 0.00 | 0.00 | 0.00 | 93 | 1006.3 |
| 20260505030836 | 9 | 352 | 0.0 | 0.0 | 0.00 | 0.00 | 0.00 | 94 | 1006.1 |
| 20260505030332 | 9 | 352 | 0.0 | 0.0 | 0.00 | 0.00 | 0.00 | 93 | 1006.3 |
| 20260505025827 | 9 | 352 | 0.0 | 0.0 | 0.00 | 0.00 | 0.00 | 93 | 1006.5 |
| 20260505025325 | 10 | 352 | 0.0 | 0.0 | 0.00 | 0.00 | 0.00 | 92 | 1006.4 |
| 20260505024824 | 10 | 352 | 0.0 | 0.0 | 0.00 | 0.00 | 0.00 | 92 | 1006.4 |
| 20260505024321 | 10 | 352 | 0.0 | 0.0 | 0.00 | 0.00 | 0.00 | 92 | 1006.5 |
| 20260505023818 | 10 | 351 | 0.0 | 0.0 | 0.00 | 0.00 | 0.00 | 92 | 1006.6 |
| 20260505023315 | 10 | 351 | 0.0 | 0.0 | 0.00 | 0.00 | 0.00 | 92 | 1006.6 |
| 20260505022812 | 10 | 351 | 0.0 | 0.0 | 0.00 | 0.00 | 0.00 | 92 | 1006.7 |
| 20260505022309 | 10 | 351 | 0.0 | 0.0 | 0.00 | 0.00 | 0.00 | 91 | 1006.8 |
| 20260505021806 | 10 | 351 | 0.0 | 0.0 | 0.00 | 0.00 | 0.00 | 89 | 1006.5 |
| 20260505021303 | 11 | 351 | 0.0 | 0.0 | 0.00 | 0.00 | 0.00 | 88 | 1006.6 |
| 20260505020759 | 11 | 351 | 0.0 | 0.0 | 0.00 | 0.00 | 0.00 | 87 | 1006.7 |
| 20260505020254 | 12 | 351 | 0.0 | 0.0 | 0.00 | 0.00 | 0.00 | 86 | 1006.7 |
| 20260505015752 | 11 | 352 | 0.0 | 0.0 | 0.00 | 0.00 | 0.00 | 87 | 1006.4 |
| 20260505015248 | 12 | 351 | 0.0 | 0.0 | 0.00 | 0.00 | 0.00 | 86 | 1006.6 |
| 20260505014746 | 12 | 351 | 0.0 | 0.0 | 0.00 | 0.00 | 0.00 | 85 | 1006.5 |
| 20260505014243 | 12 | 352 | 0.0 | 0.0 | 0.00 | 0.00 | 0.00 | 84 | 1006.4 |
| 20260505013739 | 12 | 351 | 0.0 | 0.0 | 0.00 | 0.00 | 0.00 | 84 | 1006.3 |
| 20260505013237 | 12 | 351 | 0.0 | 0.0 | 0.00 | 0.00 | 0.00 | 83 | 1006.2 |
| 20260505012734 | 12 | 351 | 0.0 | 0.0 | 0.00 | 0.00 | 0.00 | 83 | 1006.3 |
| 20260505012232 | 13 | 351 | 0.0 | 0.0 | 0.00 | 0.00 | 0.00 | 83 | 1006.3 |
| 20260505011727 | 13 | 351 | 0.0 | 0.0 | 0.00 | 0.00 | 0.00 | 83 | 1006.1 |
| 20260505011225 | 13 | 351 | 0.0 | 0.0 | 0.00 | 0.00 | 0.00 | 80 | 1006.2 |
| 20260505010720 | 14 | 351 | 0.0 | 0.0 | 0.00 | 0.00 | 0.00 | 78 | 1006.1 |
| 20260505010217 | 15 | 351 | 0.0 | 0.0 | 0.00 | 0.00 | 0.00 | 76 | 1005.9 |
| 20260505005713 | 15 | 351 | 0.0 | 0.0 | 0.00 | 0.00 | 0.00 | 75 | 1005.7 |
| 20260505005210 | 15 | 351 | 0.0 | 0.0 | 0.00 | 0.00 | 0.00 | 73 | 1005.8 |
| 20260505004707 | 16 | 351 | 0.0 | 0.0 | 0.00 | 0.00 | 0.00 | 72 | 1005.7 |
| 20260505004204 | 16 | 351 | 0.0 | 0.0 | 0.00 | 0.00 | 0.00 | 70 | 1005.5 |
| 20260505003701 | 16 | 351 | 0.0 | 0.0 | 0.00 | 0.00 | 0.00 | 67 | 1005.7 |
| 20260505003159 | 17 | 359 | 0.0 | 0.0 | 0.00 | 0.00 | 0.00 | 67 | 1005.6 |
| 20260505002655 | 18 | 353 | 0.0 | 0.0 | 0.00 | 0.00 | 0.00 | 64 | 1005.4 |
| 20260505002153 | 18 | 1 | 0.0 | 0.0 | 0.00 | 0.00 | 0.00 | 58 | 1005.5 |
| 20260505001649 | 18 | 349 | 0.0 | 0.0 | 0.00 | 0.00 | 0.00 | 55 | 1005.4 |
| 20260505001147 | 18 | 4 | 0.0 | 0.0 | 0.00 | 0.00 | 0.00 | 56 | 1005.6 |
| 20260505000644 | 18 | 357 | 0.0 | 0.0 | 0.00 | 0.00 | 0.00 | 56 | 1005.3 |
| 20260505000142 | 19 | 66 | 3.2 | 3.2 | 0.00 | 0.00 | 0.00 | 52 | 1005.3 |
| 20260504235638 | 19 | 3 | 0.0 | 0.0 | 0.00 | 0.00 | 0.00 | 57 | 1005.5 |
| 20260504235134 | 20 | 357 | 0.0 | 0.0 | 0.00 | 0.00 | 0.00 | 56 | 1005.1 |
| 20260504234632 | 20 | 344 | 0.0 | 1.6 | 0.00 | 0.00 | 0.00 | 56 | 1005.1 |
| 20260504234129 | 20 | 359 | 0.0 | 0.0 | 0.00 | 0.00 | 0.00 | 61 | 1005.3 |
| 20260504233625 | 20 | 352 | 0.0 | 0.0 | 0.00 | 0.00 | 0.00 | 56 | 1005.1 |
| 20260504233121 | 20 | 11 | 0.0 | 0.0 | 0.00 | 0.00 | 0.00 | 58 | 1005.0 |
| 20260504232619 | 20 | 3 | 0.0 | 0.0 | 0.00 | 0.00 | 0.00 | 51 | 1005.2 |
| 20260504232116 | 20 | 356 | 0.0 | 0.0 | 0.00 | 0.00 | 0.00 | 53 | 1005.1 |
| 20260504231612 | 21 | 336 | 0.0 | 1.6 | 0.00 | 0.00 | 0.00 | 56 | 1005.0 |
| 20260504231108 | 21 | 321 | 1.6 | 3.2 | 0.00 | 0.00 | 0.00 | 49 | 1005.1 |
| 20260504230604 | 21 | 359 | 0.0 | 0.0 | 0.00 | 0.00 | 0.00 | 49 | 1004.9 |
| 20260504230104 | 21 | 307 | 3.2 | 4.8 | 0.00 | 0.00 | 0.00 | 45 | 1005.0 |
| 20260504225601 | 22 | 280 | 1.6 | 3.2 | 0.00 | 0.00 | 0.00 | 44 | 1005.3 |
| 20260504225057 | 22 | 352 | 3.2 | 3.2 | 0.00 | 0.00 | 0.00 | 46 | 1004.9 |
| 20260504224554 | 22 | 12 | 0.0 | 1.6 | 0.00 | 0.00 | 0.00 | 44 | 1005.0 |
| 20260504224051 | 22 | 300 | 0.0 | 1.6 | 0.00 | 0.00 | 0.00 | 44 | 1004.9 |
| 20260504223548 | 22 | 354 | 0.0 | 0.0 | 0.00 | 0.00 | 0.00 | 44 | 1005.1 |
| 20260504223044 | 22 | 1 | 0.0 | 0.0 | 0.00 | 0.00 | 0.00 | 45 | 1005.1 |
| 20260504222541 | 22 | 353 | 0.0 | 0.0 | 0.00 | 0.00 | 0.00 | 43 | 1004.8 |
| 20260504222038 | 22 | 358 | 1.6 | 1.6 | 0.00 | 0.00 | 0.00 | 41 | 1004.8 |
| 20260504221535 | 22 | 348 | 0.0 | 0.0 | 0.00 | 0.00 | 0.00 | 43 | 1004.8 |
| 20260504221032 | 23 | 351 | 3.2 | 3.2 | 0.00 | 0.00 | 0.00 | 41 | 1004.8 |
| 20260504220529 | 23 | 342 | 0.0 | 1.6 | 0.00 | 0.00 | 0.00 | 44 | 1004.8 |
| 20260504220026 | 23 | 358 | 0.0 | 1.6 | 0.00 | 0.00 | 0.00 | 43 | 1004.8 |
| 20260504215522 | 23 | 330 | 0.0 | 0.0 | 0.00 | 0.00 | 0.00 | 42 | 1004.8 |
| 20260504215020 | 23 | 211 | 6.4 | 9.7 | 0.00 | 0.00 | 0.00 | 39 | 1004.4 |
| 20260504214516 | 24 | 305 | 3.2 | 4.8 | 0.00 | 0.00 | 0.00 | 40 | 1004.7 |
| 20260504214012 | 24 | 282 | 1.6 | 3.2 | 0.00 | 0.00 | 0.00 | 38 | 1004.7 |
| 20260504213508 | 24 | 310 | 3.2 | 4.8 | 0.00 | 0.00 | 0.00 | 38 | 1004.4 |
| 20260504213006 | 24 | 340 | 0.0 | 0.0 | 0.00 | 0.00 | 0.00 | 39 | 1004.4 |
| 20260504212501 | 25 | 328 | 3.2 | 4.8 | 0.00 | 0.00 | 0.00 | 37 | 1004.5 |
| 20260504211959 | 25 | 303 | 1.6 | 1.6 | 0.00 | 0.00 | 0.00 | 37 | 1004.1 |
| 20260504211455 | 24 | 322 | 0.0 | 0.0 | 0.00 | 0.00 | 0.00 | 40 | 1004.7 |
| 20260504210953 | 24 | 335 | 6.4 | 9.7 | 0.00 | 0.00 | 0.00 | 36 | 1004.3 |
| 20260504210450 | 24 | 316 | 0.0 | 1.6 | 0.00 | 0.00 | 0.00 | 38 | 1004.7 |
| 20260504205947 | 24 | 308 | 1.6 | 3.2 | 0.00 | 0.00 | 0.00 | 38 | 1004.3 |
| 20260504205444 | 23 | 81 | 3.2 | 6.4 | 0.00 | 0.00 | 0.00 | 37 | 1004.3 |
| 20260504204942 | 24 | 6 | 0.0 | 1.6 | 0.00 | 0.00 | 0.00 | 39 | 1004.3 |
| 20260504204440 | 25 | 300 | 1.6 | 3.2 | 0.00 | 0.00 | 0.00 | 37 | 1004.2 |
| 20260504203939 | 25 | 315 | 1.6 | 1.6 | 0.00 | 0.00 | 0.00 | 36 | 1004.3 |
| 20260504203436 | 24 | 339 | 0.0 | 0.0 | 0.00 | 0.00 | 0.00 | 38 | 1004.5 |
| 20260504202932 | 23 | 314 | 6.4 | 6.4 | 0.00 | 0.00 | 0.00 | 37 | 1004.4 |
| 20260504202429 | 23 | 359 | 0.0 | 1.6 | 0.00 | 0.00 | 0.00 | 37 | 1004.7 |
| 20260504201926 | 23 | 341 | 1.6 | 1.6 | 0.00 | 0.00 | 0.00 | 36 | 1004.5 |
| 20260504201423 | 23 | 342 | 3.2 | 4.8 | 0.00 | 0.00 | 0.00 | 38 | 1004.5 |
| 20260504200921 | 23 | 329 | 3.2 | 4.8 | 0.00 | 0.00 | 0.00 | 39 | 1004.7 |
| 20260504200417 | 25 | 288 | 3.2 | 3.2 | 0.00 | 0.00 | 0.00 | 35 | 1004.7 |
| 20260504195914 | 23 | 209 | 3.2 | 4.8 | 0.00 | 0.00 | 0.00 | 37 | 1004.8 |
| 20260504195409 | 24 | 337 | 1.6 | 1.6 | 0.00 | 0.00 | 0.00 | 37 | 1004.9 |
| 20260504194907 | 25 | 311 | 3.2 | 3.2 | 0.00 | 0.00 | 0.00 | 36 | 1005.1 |
| 20260504194402 | 24 | 2 | 1.6 | 3.2 | 0.00 | 0.00 | 0.00 | 35 | 1005.1 |
| 20260504193858 | 23 | 359 | 4.8 | 4.8 | 0.00 | 0.00 | 0.00 | 38 | 1005.2 |
| 20260504193356 | 23 | 4 | 0.0 | 0.0 | 0.00 | 0.00 | 0.00 | 37 | 1005.3 |
| 20260504192855 | 23 | 280 | 6.4 | 6.4 | 0.00 | 0.00 | 0.00 | 37 | 1005.5 |
| 20260504192352 | 22 | 331 | 1.6 | 1.6 | 0.00 | 0.00 | 0.00 | 37 | 1005.3 |
| 20260504191850 | 22 | 274 | 3.2 | 3.2 | 0.00 | 0.00 | 0.00 | 38 | 1005.4 |
| 20260504191348 | 22 | 328 | 1.6 | 3.2 | 0.00 | 0.00 | 0.00 | 37 | 1005.5 |
| 20260504190843 | 22 | 10 | 0.0 | 1.6 | 0.00 | 0.00 | 0.00 | 40 | 1005.6 |
| 20260504190339 | 22 | 322 | 3.2 | 3.2 | 0.00 | 0.00 | 0.00 | 39 | 1005.7 |
| 20260504185836 | 22 | 15 | 0.0 | 1.6 | 0.00 | 0.00 | 0.00 | 38 | 1005.9 |
| 20260504185333 | 22 | 48 | 3.2 | 4.8 | 0.00 | 0.00 | 0.00 | 39 | 1006.0 |
| 20260504184829 | 22 | 355 | 0.0 | 1.6 | 0.00 | 0.00 | 0.00 | 39 | 1006.1 |
| 20260504184325 | 22 | 321 | 1.6 | 3.2 | 0.00 | 0.00 | 0.00 | 38 | 1005.9 |
| 20260504183820 | 22 | 13 | 4.8 | 6.4 | 0.00 | 0.00 | 0.00 | 38 | 1006.1 |
| 20260504183318 | 23 | 346 | 1.6 | 3.2 | 0.00 | 0.00 | 0.00 | 35 | 1005.9 |
| 20260504182816 | 23 | 38 | 1.6 | 1.6 | 0.00 | 0.00 | 0.00 | 38 | 1006.0 |
| 20260504182313 | 23 | 335 | 3.2 | 4.8 | 0.00 | 0.00 | 0.00 | 35 | 1005.9 |
| 20260504181810 | 23 | 272 | 1.6 | 1.6 | 0.00 | 0.00 | 0.00 | 34 | 1005.8 |
| 20260504181307 | 23 | 231 | 6.4 | 6.4 | 0.00 | 0.00 | 0.00 | 34 | 1005.9 |
| 20260504180806 | 23 | 252 | 6.4 | 6.4 | 0.00 | 0.00 | 0.00 | 36 | 1006.1 |
| 20260504180305 | 23 | 329 | 4.8 | 4.8 | 0.00 | 0.00 | 0.00 | 40 | 1006.2 |
| 20260504175802 | 23 | 281 | 6.4 | 6.4 | 0.00 | 0.00 | 0.00 | 34 | 1006.5 |
| 20260504175259 | 23 | 336 | 1.6 | 1.6 | 0.00 | 0.00 | 0.00 | 35 | 1006.3 |
| 20260504174757 | 23 | 210 | 3.2 | 3.2 | 0.00 | 0.00 | 0.00 | 39 | 1006.4 |
| 20260504174254 | 23 | 125 | 3.2 | 3.2 | 0.00 | 0.00 | 0.00 | 39 | 1006.5 |
| 20260504173750 | 23 | 292 | 6.4 | 6.4 | 0.00 | 0.00 | 0.00 | 35 | 1006.5 |
| 20260504173248 | 23 | 337 | 3.2 | 3.2 | 0.00 | 0.00 | 0.00 | 36 | 1006.3 |
| 20260504172744 | 23 | 352 | 1.6 | 1.6 | 0.00 | 0.00 | 0.00 | 43 | 1006.7 |
| 20260504172241 | 22 | 320 | 1.6 | 1.6 | 0.00 | 0.00 | 0.00 | 40 | 1006.7 |
| 20260504171737 | 22 | 334 | 3.2 | 4.8 | 0.00 | 0.00 | 0.00 | 37 | 1006.8 |
| 20260504171234 | 23 | 284 | 1.6 | 1.6 | 0.00 | 0.00 | 0.00 | 35 | 1006.8 |
| 20260504170731 | 22 | 314 | 3.2 | 3.2 | 0.00 | 0.00 | 0.00 | 35 | 1007.1 |
| 20260504170229 | 23 | 296 | 4.8 | 4.8 | 0.00 | 0.00 | 0.00 | 40 | 1007.1 |
| 20260504160147 | 20 | 338 | 6.4 | 6.4 | 0.00 | 0.00 | 0.00 | 42 | 1008.2 |
| 20260504151114 | 20 | 116 | 4.8 | 6.4 | 0.00 | 0.00 | 0.00 | 37 | 1008.6 |
| 20260504150612 | 20 | 79 | 1.6 | 3.2 | 0.00 | 0.00 | 0.00 | 40 | 1008.5 |
| 20260504150109 | 20 | 277 | 3.2 | 4.8 | 0.00 | 0.00 | 0.00 | 45 | 1008.4 |
| 20260504141037 | 18 | 10 | 0.0 | 1.6 | 0.00 | 0.00 | 0.00 | 41 | 1008.5 |
| 20260504140534 | 18 | 35 | 1.6 | 1.6 | 0.00 | 0.00 | 0.00 | 41 | 1008.6 |
| 20260504130458 | 16 | 331 | 3.2 | 3.2 | 0.00 | 0.00 | 0.00 | 47 | 1009.1 |
| 20260504110345 | 5 | 8 | 0.0 | 0.0 | 0.00 | 0.00 | 0.00 | 89 | 1009.6 |
| 20260504100303 | 5 | 10 | 0.0 | 0.0 | 0.00 | 0.00 | 0.00 | 92 | 1009.9 |
| 20260504081656 | 4 | 11 | 0.0 | 0.0 | 0.00 | 0.00 | 0.00 | 87 | 1010.2 |
| 20260504081152 | 5 | 11 | 0.0 | 0.0 | 0.00 | 0.00 | 0.00 | 88 | 1010.2 |
| 20260504080649 | 4 | 11 | 0.0 | 0.0 | 0.00 | 0.00 | 0.00 | 88 | 1010.2 |
| 20260504080145 | 4 | 11 | 0.0 | 0.0 | 0.00 | 0.00 | 0.00 | 88 | 1010.0 |
| 20260504070114 | 3 | 11 | 0.0 | 0.0 | 0.00 | 0.00 | 0.00 | 90 | 1010.3 |